Location: Arrodets-la-Barthe
(43.0306°N, 0.2829°E)
Time: 01:53:18
(UTC+00:00)

NOAA 19 - Pass Details

Date: 03 April 2023
Orbit: 840 x 859 km, 99.1° (Epoch: 29 May)

Event Time Altitude Azimuth Distance (km) Brightness Sun altitude
Exits shadow 19:42:45 - 162° (SSE) 2,901 7.6 -14.2°
Reaches altitude 10° 19:43:52 10° 162° (SSE) 2,462 7.3 -14.3°
Maximum altitude 19:49:20 87° 74° (ENE) 852 5.2 -15.3°
Drops below altitude 10° 19:54:50 10° 346° (NNW) 2,470 8.1 -16.2°
Sets 19:57:11 0° 347° (NNW) 3,407 8.9 -16.6°
